User: anonymous   Login
Location: Unspecified
(0.0000°N, 0.0000°E)
Time: 07:08:19
(UTC+02:00)
Language:

OPAL - Orbit

View from above orbital plane
View from above orbital plane
View from above satellite
View from above satellite

Ground track
Ground track

The orbit data is extracted from the following two-line orbital elements,

1 26063U 00004C   15143.14025437  .00000055  00000-0  38651-4 0  9998
2 26063 100.2207 357.1863 0035825 280.6814 079.0333 14.36538131802826
Epoch (UTC): 23 May 2015 03:21:57
Eccentricity: 0.0035825
inclination: 100.2207°
perigee height: 744 km
apogee height: 795 km
right ascension of ascending node: 357.1863°
argument of perigee: 280.6814°
revolutions per day: 14.36538131
mean anomaly at epoch: 79.0333°
orbit number at epoch: 80282

The dashed part of the orbit path shows where the satellite is in the earth's shadow,  

DLR